Theta_e
307 307 307 307 307 307 306 306 306 306 306 306 307 306 306 306 307 305 302 308 303 295 298 301 301 294 293 291 287 291 293 296 294 289 288 287 287 289 288 290 287 289 288 289 291 287 285 299 302 297 301 309 310 311
307 307 307 307 307 306 306 306 306 305 305 306 306 307 306 305 307 306 299 308 309 299 298 305 305 307 305 301 293 292 293 294 296 290 291 291 288 290 288 285 293 288 290 288 291 290 298 302 301 305 306 306 308 310
307 307 306 306 306 306 305 306 306 306 305 306 306 307 306 306 306 305 301 304 304 298 301 302 301 306 309 306 304 292 296 300 298 300 295 293 288 293 286 287 290 294 298 293 293 295 299 301 304 306 306 306 309 310
306 306 306 306 306 306 306 306 306 306 305 305 306 307 306 306 306 304 301 306 304 300 293 300 311 306 311 308 305 303 301 301 301 298 294 293 292 298 292 292 291 294 296 294 294 297 299 300 302 304 306 307 308 309
305 305 306 306 306 306 306 306 306 306 306 305 306 307 307 306 305 305 306 307 308 301 294 298 304 307 310 308 304 303 300 298 296 295 295 292 299 298 297 293 292 296 294 291 290 298 298 298 302 304 304 305 308 308
304 304 305 305 305 305 305 305 306 306 306 306 306 306 306 306 305 306 300 309 309 307 296 292 306 306 308 308 306 303 302 299 298 297 296 301 304 299 294 292 297 297 298 299 296 300 301 303 304 306 305 305 307 308
303 303 304 304 304 305 305 306 306 306 306 306 306 306 305 305 305 305 301 305 309 308 297 293 297 305 307 306 304 304 305 301 300 298 297 300 299 301 296 289 296 297 298 299 301 302 300 302 301 305 306 307 307 308
301 301 302 302 302 303 304 305 306 306 306 306 306 305 306 306 306 306 309 306 310 304 301 292 295 299 309 302 300 305 303 304 303 300 302 298 300 298 292 296 299 299 300 299 301 303 302 304 305 305 308 307 306 307
300 300 301 301 301 302 303 304 305 305 305 305 305 305 306 306 305 303 305 306 310 304 295 294 291 292 307 302 303 301 301 295 303 298 298 300 298 293 296 298 299 300 300 301 303 302 303 303 303 304 306 307 306 307
299 299 300 301 301 302 303 304 305 305 305 304 306 305 301 303 306 306 304 300 297 299 299 295 300 298 301 300 298 298 300 297 294 298 301 295 297 300 301 301 302 301 302 303 301 299 300 301 302 303 304 306 308 307
298 299 299 300 301 302 303 304 304 304 305 306 302 302 306 307 305 302 297 294 295 293 297 300 301 298 305 297 296 298 294 297 292 296 294 295 294 298 303 302 303 305 304 304 304 303 303 303 303 304 304 306 308 309
298 298 299 300 300 301 302 303 303 302 302 300 299 301 303 300 297 293 293 297 297 295 300 299 299 303 304 304 297 296 292 294 290 300 295 292 297 301 302 301 303 306 305 304 304 303 303 304 305 306 306 305 308 310
297 298 298 299 300 301 303 303 303 303 302 303 297 293 294 295 289 291 289 294 295 299 300 300 298 302 302 301 296 294 288 289 300 293 291 296 299 301 302 302 303 304 305 304 304 305 305 304 304 305 306 305 307 309
297 297 298 299 300 302 302 302 302 302 301 298 295 288 292 292 295 297 297 298 301 302 300 300 299 299 302 297 296 289 294 296 288 285 289 297 300 301 303 303 302 302 304 303 304 305 304 304 303 303 306 309 309 310
297 297 298 300 301 301 301 301 301 302 299 295 297 288 293 299 301 302 303 302 303 304 301 299 300 300 298 295 296 294 289 288 290 290 297 300 302 303 303 304 303 302 303 304 305 304 304 305 304 303 305 306 306 307
296 297 299 300 299 299 300 301 302 302 299 296 296 295 299 298 299 301 301 301 304 303 303 301 296 294 294 295 291 289 288 287 292 301 301 303 303 304 304 305 304 304 304 305 305 304 305 304 304 303 304 304 304 305
296 297 299 298 298 299 300 299 298 296 294 294 295 299 298 298 298 300 302 303 306 301 297 297 293 292 297 293 291 296 289 297 301 300 302 304 304 305 305 307 304 304 305 304 305 305 305 305 305 304 301 302 303 304
295 298 298 297 297 298 301 299 295 295 290 295 293 296 299 301 300 302 304 305 304 301 299 296 299 294 292 290 293 300 302 303 303 303 303 304 305 305 304 304 304 305 304 305 305 305 306 305 303 303 303 303 303 302
296 296 297 297 297 294 293 296 298 291 294 296 298 300 300 301 303 304 305 306 306 306 302 299 294 293 295 299 298 300 301 302 302 302 304 306 306 304 304 304 304 305 304 306 305 305 306 306 305 304 304 302 301 301
297 297 298 299 297 293 290 294 301 294 292 296 298 298 299 299 302 303 305 305 303 301 297 296 296 298 299 301 303 303 304 304 304 300 301 304 305 306 305 304 303 304 304 306 305 300 305 305 305 305 304 302 301 301
296 297 297 298 296 294 293 293 293 295 296 294 297 297 297 300 299 300 302 304 301 300 298 300 301 303 306 306 305 306 304 305 303 303 302 302 304 304 305 305 305 303 302 303 302 303 303 305 305 304 304 303 302 302
295 297 295 295 291 292 290 294 292 294 292 293 294 295 294 293 294 296 301 299 298 300 302 302 302 303 304 304 304 307 306 306 306 303 298 299 302 301 302 302 302 301 302 304 304 304 304 304 304 304 303 304 301 302
296 296 292 291 287 288 286 294 289 291 288 290 294 291 293 295 297 301 297 299 299 303 304 304 305 306 305 306 306 305 306 305 304 304 303 303 303 303 303 303 303 301 302 303 305 305 304 295 301 303 303 303 302 301
297 290 287 287 287 284 290 288 291 290 290 290 289 288 291 293 297 295 292 297 300 302 303 304 305 303 304 304 303 303 303 305 305 305 305 303 301 302 303 302 302 303 304 304 304 304 304 303 298 302 301 301 301 299
284 284 286 283 288 285 284 285 286 287 285 288 287 288 290 295 291 290 291 295 299 300 302 304 302 303 301 301 303 304 306 306 303 303 305 304 303 302 301 302 302 302 305 303 301 301 302 302 301 300 299 298 298 297
279 283 283 284 285 284 284 283 284 285 286 286 288 291 293 291 288 288 292 297 299 301 303 301 301 301 301 302 302 303 305 307 307 303 304 303 303 301 300 299 299 299 303 302 301 299 299 300 300 299 298 296 290 295
278 280 285 289 289 288 286 288 288 286 285 285 288 289 289 285 286 293 299 299 301 302 302 303 302 301 301 302 303 305 307 308 307 305 306 305 304 303 301 299 300 301 303 302 301 300 299 298 299 298 297 297 295 294
284 284 280 284 285 287 283 284 284 283 286 291 289 287 286 286 286 290 296 301 301 302 302 304 305 304 302 304 306 304 305 308 308 307 304 303 303 303 305 303 301 290 300 300 300 301 300 299 299 298 297 295 295 295
284 286 285 282 284 285 285 284 285 288 291 290 286 285 287 292 294 296 300 301 302 300 299 299 302 304 304 304 307 307 306 304 302 299 297 297 298 299 303 302 300 301 301 298 284 292 296 296 297 298 297 296 295 294
284 287 284 283 282 282 285 289 287 290 291 291 292 292 292 293 297 299 297 297 296 296 298 298 300 300 299 301 301 301 302 304 302 300 299 298 298 301 302 303 302 302 302 301 298 296 285 294 291 297 296 295 292 290
287 286 285 285 284 287 289 290 291 292 291 290 292 290 289 292 292 291 290 293 297 299 299 299 299 301 300 298 293 295 296 300 301 301 300 303 304 303 302 302 303 303 302 301 299 298 297 296 296 295 294 292 290 288
287 286 284 283 285 289 290 290 289 288 289 289 289 291 291 291 289 286 287 288 287 287 287 290 292 293 296 297 297 295 290 294 292 293 296 302 302 301 301 301 301 301 300 298 297 296 296 295 294 293 291 290 289 287
287 288 287 286 285 285 288 288 287 287 288 288 289 290 288 286 281 285 290 289 286 285 286 287 288 288 290 291 291 291 290 291 288 285 285 284 285 290 298 298 298 298 297 296 295 295 294 293 292 291 290 289 287 286
Wind_Speed
17 17 18 18 18 18 19 21 22 21 21 20 20 19 17 17 15 9 9 9 4 4 14 13 4 4 3 2 3 8 10 5 6 8 5 6 6 7 7 6 6 6 4 3 4 4 3 18 11 12 9 10 13 14
17 16 17 17 18 19 19 18 19 22 21 20 20 19 18 16 15 11 7 6 2 2 11 21 22 18 14 12 2 2 7 9 5 4 5 5 4 4 8 4 9 2 5 4 8 5 7 9 8 10 9 11 14 14
19 18 17 18 18 19 20 19 19 21 21 20 21 20 19 18 15 10 9 8 2 4 13 13 12 13 5 8 11 3 3 5 4 4 4 3 5 3 4 3 5 4 9 3 7 10 3 4 9 11 13 13 12 13
18 18 17 17 18 19 20 19 19 19 22 21 20 21 20 18 16 12 7 7 4 3 6 2 7 2 10 10 12 13 10 7 9 7 3 4 5 1 2 3 4 5 9 12 0 7 10 13 14 12 15 12 9 11
16 17 17 17 18 19 19 19 19 20 21 23 23 22 21 20 17 11 9 8 6 4 5 10 16 11 13 11 10 9 9 6 4 5 3 3 4 6 6 1 4 7 7 5 4 16 9 14 15 16 13 10 6 8
16 16 17 17 18 19 19 20 20 21 22 23 25 24 23 20 14 6 3 6 8 8 3 5 7 10 12 12 13 12 7 4 3 4 5 3 5 5 4 1 12 10 9 10 8 14 16 18 16 13 14 13 14 12
16 17 16 18 18 19 18 20 20 21 22 23 23 22 22 17 7 4 3 1 6 5 3 5 5 6 12 9 4 5 10 4 6 4 4 5 3 4 2 4 9 10 9 11 11 12 13 13 16 17 16 14 13 15
17 18 17 17 18 20 20 19 21 22 23 25 23 19 19 9 8 6 3 4 2 3 3 4 7 6 10 4 3 3 4 4 4 4 4 4 4 2 2 10 8 4 8 9 10 11 10 10 13 15 16 13 11 11
17 17 17 17 18 19 19 19 21 22 25 28 24 21 5 5 2 2 2 2 2 2 3 3 4 4 4 2 2 2 5 4 5 5 4 2 2 2 5 7 7 10 7 10 8 8 10 12 13 15 14 15 12 10
17 17 18 18 18 18 18 19 19 22 27 30 10 5 5 2 8 5 4 3 3 4 5 7 10 8 5 2 2 2 5 5 3 5 3 4 2 4 4 4 7 8 12 13 13 14 15 15 12 13 14 14 14 10
17 18 19 19 20 20 19 17 17 19 18 6 5 4 7 6 4 5 4 5 5 5 7 8 11 7 4 3 1 1 4 5 3 3 4 3 4 3 6 9 9 11 10 10 10 15 12 11 12 12 13 13 15 12
18 19 19 19 20 21 20 19 14 10 7 9 8 7 5 3 4 4 6 6 7 6 7 8 5 8 4 3 1 1 3 5 4 3 3 1 4 5 6 7 10 10 11 8 8 15 13 14 14 13 11 10 10 14
19 20 20 20 20 20 12 7 11 13 17 1 4 4 4 5 6 8 7 6 4 5 4 3 4 3 4 3 2 2 3 5 4 1 3 1 6 4 6 5 9 9 11 13 14 12 14 14 13 15 8 8 11 16
20 21 21 20 21 14 11 13 14 12 7 4 5 5 7 7 7 7 8 7 4 1 4 3 3 8 3 5 3 3 6 1 2 3 4 1 5 7 5 6 8 11 13 12 14 15 15 16 12 13 15 14 16 15
22 24 22 15 7 12 13 16 18 5 5 6 6 6 8 10 11 10 7 6 4 1 4 3 2 2 4 4 5 4 3 3 4 3 2 4 3 3 5 4 6 10 11 11 11 11 12 13 12 10 13 13 15 16
22 22 3 8 12 17 20 16 11 4 5 6 8 9 9 11 11 8 10 9 6 5 4 3 4 2 7 3 4 5 2 4 3 4 6 2 4 4 3 5 6 5 6 7 9 10 9 11 15 16 13 14 13 13
22 5 17 20 21 22 20 6 3 6 6 7 7 9 12 12 12 13 12 8 7 6 6 2 4 5 3 3 4 5 6 4 6 8 3 1 4 6 4 3 4 4 4 7 7 10 10 9 10 12 13 12 14 14
12 12 19 21 18 15 7 6 5 7 10 9 11 11 12 12 12 11 9 8 9 9 7 7 7 5 4 3 3 5 6 7 7 8 3 2 4 2 3 1 2 6 6 5 5 8 10 10 9 6 11 9 10 12
15 16 22 21 12 5 5 6 6 7 9 10 11 11 11 11 10 11 10 7 7 8 6 5 6 7 8 9 9 6 4 7 4 5 4 9 3 3 1 2 3 4 5 5 6 7 6 9 8 5 8 8 7 10
21 20 16 12 6 4 6 7 7 7 7 7 11 11 10 10 10 10 9 8 9 9 8 9 11 10 9 8 5 5 7 4 3 2 7 5 1 8 6 3 3 4 5 9 5 6 8 6 7 7 9 8 7 11
17 3 13 9 4 5 6 6 7 7 9 11 11 11 9 11 10 10 9 9 9 9 10 10 10 10 13 9 8 4 7 8 4 5 7 7 7 2 7 6 6 3 4 6 3 8 8 5 6 6 8 9 8 9
12 12 9 8 5 6 7 9 8 7 10 12 12 12 12 11 12 13 11 11 10 9 10 11 10 11 12 13 9 9 9 10 10 5 5 5 7 5 1 2 3 2 9 9 8 5 6 6 6 5 6 8 8 9
12 8 4 5 7 6 8 8 8 7 8 6 7 10 11 12 11 10 11 12 11 11 12 11 12 12 9 14 8 6 9 8 7 5 3 9 6 4 3 1 2 4 7 7 6 5 6 3 5 5 5 7 7 7
2 4 5 7 10 7 5 9 5 6 9 12 13 19 15 12 11 12 10 9 8 10 6 4 6 6 11 9 7 7 6 5 5 9 10 6 4 4 4 3 5 7 6 5 4 5 4 3 1 6 8 8 8 8
6 7 6 7 6 7 8 15 16 14 20 17 20 16 10 9 10 13 15 10 9 8 4 2 5 9 7 4 6 8 8 7 7 4 6 7 6 8 6 6 6 4 8 5 6 5 6 5 4 6 7 7 8 9
8 7 7 7 9 14 15 19 18 17 14 13 15 13 12 11 15 8 8 5 5 3 1 1 7 4 5 3 4 3 5 8 2 6 7 6 8 6 7 8 6 6 5 4 5 5 6 5 8 6 6 9 7 7
8 10 8 12 13 15 14 12 10 6 16 13 9 8 4 6 7 2 8 11 2 4 6 4 4 3 5 5 5 5 4 8 9 8 4 7 7 4 5 6 14 8 6 5 4 4 4 4 6 6 5 8 7 6
11 9 18 14 14 12 17 15 18 19 7 3 6 5 11 10 7 3 5 9 10 13 7 3 7 8 7 4 7 1 3 8 9 5 4 1 6 6 12 11 10 12 10 8 5 6 4 4 5 6 7 7 6 6
12 13 14 19 17 15 15 16 15 13 13 13 11 10 3 4 4 6 5 2 6 11 6 6 7 5 8 3 6 6 4 1 10 16 17 11 9 8 10 9 8 7 8 7 7 6 7 6 6 6 7 8 6 6
17 13 15 16 19 19 15 14 15 12 12 11 8 8 9 6 5 8 5 7 7 8 9 7 7 6 8 11 10 8 9 6 8 8 6 10 10 8 10 11 10 7 7 9 8 8 3 5 4 5 6 8 6 4
9 10 10 13 15 15 14 14 12 14 11 12 12 11 9 3 6 10 12 11 9 11 11 9 8 9 9 9 10 8 7 7 8 10 11 7 7 8 8 4 6 4 5 4 5 4 4 2 7 8 6 8 7 5
8 7 9 12 13 12 10 12 10 10 11 12 10 10 8 7 7 4 8 9 8 8 8 10 9 9 9 8 9 9 10 9 11 11 16 10 10 9 8 8 7 6 6 6 6 5 5 8 5 7 5 5 7 8
9 10 10 7 5 5 6 9 6 9 8 7 10 3 8 6 6 5 4 6 5 5 5 5 4 4 7 9 9 7 9 10 11 12 14 14 14 12 7 5 4 2 2 3 3 5 5 7 4 6 8 7 7 7
Wind_Direction
299 301 302 303 307 311 313 316 319 321 322 322 322 323 323 320 316 310 289 293 229 239 289 277 354 228 230 204 274 323 311 347 338 358 340 352 340 1 329 349 356 333 305 326 299 339 357 336 11 48 323 17 27 32
297 299 299 301 304 308 309 306 311 317 322 319 319 319 319 317 312 307 279 288 198 214 273 289 281 280 257 226 206 241 314 306 336 0 350 333 314 327 321 335 5 12 358 313 9 29 294 323 359 352 349 18 20 12
299 301 301 301 301 301 304 304 304 313 318 316 317 316 318 314 312 298 282 285 266 265 273 246 233 235 170 181 174 199 242 336 331 17 312 297 267 246 356 329 294 30 320 13 329 355 29 346 338 345 3 3 1 359
299 302 302 300 300 301 302 302 303 307 314 315 314 314 315 311 310 299 266 258 209 286 282 331 111 177 169 168 184 208 280 305 292 288 276 266 285 197 278 82 337 341 338 332 253 351 339 6 354 354 326 342 355 353
303 304 305 305 306 304 301 300 304 305 305 315 315 315 314 312 307 283 249 239 216 261 305 306 305 227 163 174 179 203 227 266 284 288 242 262 322 331 91 325 39 3 356 332 317 325 317 309 318 317 309 320 323 329
308 310 306 310 308 307 306 306 305 305 304 309 315 315 313 310 307 260 243 190 213 209 297 294 334 175 187 196 190 200 212 238 250 292 291 283 293 332 2 30 26 357 335 325 302 304 304 306 292 306 343 330 330 335
312 310 309 313 311 307 307 307 306 306 304 303 306 312 310 303 256 257 28 353 193 120 249 276 271 163 181 199 234 170 198 222 240 261 258 273 4 355 17 18 350 348 340 323 313 315 316 334 323 319 310 301 297 289
313 314 315 319 318 314 312 310 309 308 306 300 303 315 316 310 263 250 139 250 176 207 253 270 280 255 171 188 221 201 209 205 228 246 267 287 338 5 350 345 1 296 283 283 309 310 293 304 313 310 305 293 285 281
316 316 316 315 312 310 311 317 313 311 305 299 303 301 273 233 220 93 280 277 222 262 258 228 259 259 177 240 190 209 213 244 211 216 225 201 190 229 268 282 325 339 337 301 329 358 327 336 329 321 306 294 283 272
315 314 315 317 319 317 313 309 314 313 304 299 282 201 165 52 134 166 184 173 196 211 227 252 246 265 294 266 68 248 219 237 237 226 162 210 217 159 34 29 47 8 18 3 356 354 338 329 320 315 306 304 293 285
321 317 315 318 319 319 317 321 325 319 295 322 331 358 352 156 244 215 220 207 177 221 219 231 240 256 167 311 166 261 310 283 261 99 258 185 150 80 21 16 6 55 34 354 19 1 342 327 316 325 310 305 300 290
321 320 320 319 316 319 320 314 323 322 329 319 301 299 291 273 248 234 222 205 208 235 176 231 174 228 121 79 82 253 274 300 288 352 262 214 88 95 63 15 345 58 29 5 18 19 2 357 349 329 303 311 294 281
323 318 320 318 318 319 342 14 329 307 294 214 196 229 223 206 234 227 213 226 209 199 209 153 210 117 149 103 164 243 248 248 322 288 270 131 174 136 71 30 348 14 36 6 19 6 7 6 8 349 326 308 297 297
323 317 317 318 317 310 321 325 329 322 277 251 224 231 224 213 229 216 235 236 272 278 315 280 181 179 150 168 148 228 234 262 281 226 233 121 48 41 68 47 10 356 36 6 8 2 16 18 25 4 8 16 12 9
323 318 316 310 324 322 327 323 308 289 275 261 241 236 236 238 274 274 271 288 299 237 268 281 290 309 175 200 206 215 247 237 221 247 293 312 83 47 352 37 41 349 22 8 19 18 22 4 36 17 11 18 16 11
327 314 75 348 347 339 325 310 293 225 253 246 236 258 272 280 278 263 249 242 232 242 205 257 262 191 217 209 184 199 227 241 250 202 261 245 106 57 336 342 13 15 21 23 9 22 41 22 37 28 24 19 16 11
312 231 6 355 343 322 302 282 250 231 247 247 240 242 259 275 283 292 303 314 324 221 219 214 204 233 196 205 211 141 198 219 222 247 14 270 94 104 247 19 346 359 50 46 24 21 56 51 30 45 32 28 21 15
289 322 337 328 329 303 280 185 255 244 238 240 254 261 264 267 273 274 260 251 262 260 241 204 252 224 230 225 221 216 218 233 248 296 235 75 119 153 257 226 347 334 343 82 38 47 38 54 46 43 53 11 38 29
312 307 302 297 302 295 280 215 227 254 246 253 259 266 270 273 273 280 283 271 269 278 256 229 238 242 237 248 253 265 281 252 214 242 195 219 108 180 202 267 265 276 353 66 28 69 57 47 52 33 64 27 41 47
296 290 311 296 254 250 258 250 219 244 268 285 299 290 286 288 281 269 258 253 243 236 233 239 246 252 268 290 268 224 257 182 239 118 279 135 161 193 194 260 338 321 277 137 85 44 57 37 44 22 64 65 31 47
297 353 324 268 233 226 271 274 252 258 268 264 272 281 291 297 292 279 260 231 228 226 245 250 245 256 267 275 283 262 214 256 267 200 228 154 194 16 218 221 218 289 332 124 102 105 84 48 40 28 47 49 56 36
283 308 293 281 251 231 244 234 255 294 297 288 287 280 277 275 276 279 279 266 251 229 236 252 250 256 253 259 257 241 251 171 225 104 137 159 192 200 285 44 35 6 55 57 61 63 78 56 359 66 27 75 41 58
265 248 240 239 245 244 255 233 246 232 251 266 296 282 268 261 263 258 245 247 259 261 236 232 237 255 283 275 276 253 251 220 166 163 131 257 141 190 176 84 73 66 74 66 75 71 79 358 41 8 38 49 59 38
223 236 240 234 206 259 258 265 257 266 278 265 264 267 262 279 290 283 272 261 273 273 275 295 266 233 248 242 251 245 238 224 178 196 171 259 178 137 130 105 87 89 108 110 84 111 118 124 281 48 38 23 52 31
252 222 234 254 232 229 246 259 260 257 260 268 275 277 282 291 296 278 276 271 242 264 312 329 261 247 247 252 250 246 192 186 208 131 159 186 212 164 173 147 112 86 122 148 152 136 154 107 81 88 66 42 14 58
229 244 222 233 237 246 258 263 265 274 283 303 279 266 258 257 248 252 265 311 245 74 183 235 267 296 306 331 290 256 129 111 114 142 198 216 235 179 153 152 127 131 90 54 45 46 61 62 85 64 91 97 56 38
227 242 245 257 269 280 283 289 290 289 292 298 270 289 274 234 239 330 12 23 300 72 328 304 339 328 330 331 334 262 173 152 179 163 136 281 231 134 150 149 147 126 104 99 97 59 28 46 80 86 86 86 72 57
224 239 252 257 262 266 271 266 272 290 276 269 347 336 348 12 14 299 312 338 336 324 293 55 18 359 336 2 321 132 352 159 134 181 158 9 108 114 97 80 67 71 76 56 23 51 29 50 81 90 85 75 67 59
243 244 250 259 267 274 276 271 264 264 263 267 268 268 263 244 249 344 349 92 314 313 349 10 40 351 324 314 48 36 124 231 180 169 157 173 165 156 127 123 137 142 135 112 63 73 66 42 26 75 91 93 72 59
267 260 253 253 258 262 264 266 270 274 278 276 287 291 274 287 89 26 29 1 357 320 320 338 333 346 328 18 2 69 336 34 27 335 206 181 180 167 148 156 162 167 141 142 143 132 123 169 146 175 113 82 78 62
268 279 277 268 262 257 254 253 269 278 262 271 279 275 263 240 94 32 15 346 354 358 358 355 8 8 15 29 31 6 22 3 24 1 359 89 91 80 35 62 108 107 120 129 135 167 160 178 75 59 61 117 111 88
253 250 255 260 264 266 268 279 265 249 254 251 260 275 269 274 54 37 15 1 13 15 13 13 22 20 32 36 46 61 41 33 22 23 2 53 76 79 85 79 70 71 84 83 84 82 68 84 105 112 74 63 92 92
274 270 259 264 258 249 238 230 261 276 277 264 254 316 42 44 64 27 21 17 10 351 360 15 11 15 36 51 61 52 49 55 47 38 40 41 40 36 49 58 80 109 170 158 140 116 115 131 130 119 110 105 97 94